Total_Precipitation_Accumulation
0.35 0.31 0.32 0.26 0.25 0.24 0.27 0.31 0.39 0.46 0.42 0.41 0.41 0.44 0.41 0.35 0.34 0.35 0.37 0.42 0.51 0.60 0.69 0.79 0.96 1.05 1.09 1.16 1.20 1.37 1.59 1.60 1.48 1.41 1.38 1.41 1.50 1.49 1.45 1.35 1.41 1.39 1.22
0.30 0.28 0.29 0.26 0.23 0.24 0.27 0.31 0.40 0.47 0.44 0.45 0.44 0.44 0.42 0.41 0.36 0.35 0.38 0.42 0.50 0.62 0.64 0.69 0.77 0.89 0.90 0.95 1.04 1.33 1.58 1.45 1.52 1.77 1.88 1.74 1.72 1.61 1.59 1.49 1.62 1.88 1.38
0.26 0.30 0.26 0.32 0.28 0.24 0.26 0.30 0.38 0.49 0.48 0.51 0.50 0.46 0.44 0.45 0.41 0.41 0.43 0.47 0.57 0.71 0.73 0.74 0.83 0.94 0.96 0.96 1.03 1.23 1.50 1.58 1.69 2.05 2.46 2.09 1.97 1.87 1.73 1.59 1.49 1.51 1.36
0.26 0.27 0.24 0.28 0.31 0.27 0.26 0.30 0.40 0.52 0.53 0.58 0.54 0.49 0.48 0.47 0.47 0.47 0.50 0.53 0.64 0.76 0.82 0.86 0.88 0.90 0.89 0.90 1.04 1.20 1.40 1.62 1.91 2.26 2.64 2.46 2.31 2.33 2.08 1.79 1.57 1.45 1.36
0.33 0.29 0.27 0.27 0.30 0.30 0.30 0.31 0.43 0.54 0.56 0.64 0.60 0.59 0.59 0.57 0.52 0.50 0.53 0.56 0.63 0.76 0.78 0.78 0.78 0.77 0.82 0.85 0.99 1.15 1.43 1.76 2.04 2.31 2.84 3.13 3.15 2.76 2.13 1.72 1.63 1.59 1.48
0.42 0.35 0.27 0.30 0.31 0.36 0.38 0.39 0.51 0.54 0.62 0.70 0.69 0.71 0.71 0.70 0.64 0.59 0.63 0.66 0.66 0.73 0.76 0.78 0.81 0.81 0.84 0.89 0.97 1.11 1.32 1.73 1.95 2.15 2.89 3.13 2.84 2.63 2.18 1.85 1.72 1.57 1.40
0.50 0.42 0.31 0.34 0.40 0.46 0.51 0.53 0.66 0.64 0.70 0.81 0.86 0.84 0.79 0.78 0.73 0.69 0.73 0.76 0.75 0.73 0.75 0.80 0.86 0.85 0.85 0.93 0.98 1.05 1.17 1.53 1.73 2.49 2.75 2.75 2.76 2.65 2.39 2.10 1.92 1.67 1.44
0.55 0.46 0.40 0.40 0.53 0.66 0.69 0.67 0.78 0.74 0.80 0.90 0.98 0.96 0.87 0.78 0.72 0.71 0.75 0.77 0.82 0.85 0.81 0.77 0.77 0.78 0.84 0.95 0.98 1.05 1.21 1.29 1.45 2.03 2.39 2.42 2.32 2.38 2.52 2.21 1.95 1.79 1.62
0.68 0.55 0.49 0.48 0.65 0.88 0.92 0.83 0.84 0.81 0.85 0.96 1.12 1.13 0.98 0.85 0.77 0.76 0.80 0.82 0.88 0.88 0.79 0.72 0.73 0.76 0.80 0.86 0.97 1.00 1.15 1.36 1.51 1.89 2.00 2.18 1.96 2.15 2.52 2.39 1.96 1.79 1.73
1.02 0.82 0.71 0.71 0.80 0.90 0.92 0.94 0.90 0.88 0.97 1.06 1.17 1.18 1.08 0.97 0.88 0.88 0.84 0.88 0.89 0.94 0.90 0.86 0.85 0.85 0.84 0.86 0.95 1.07 1.18 1.32 1.43 1.73 2.36 2.24 1.91 2.38 2.66 2.48 2.14 1.96 1.87
1.18 1.26 1.18 1.07 1.05 1.04 1.00 1.01 1.06 1.05 1.08 1.11 1.18 1.15 1.08 1.07 1.17 1.12 0.97 1.01 1.04 1.14 1.18 1.11 1.07 1.05 0.99 1.01 1.09 1.21 1.29 1.12 1.42 2.03 2.55 2.34 2.17 2.57 2.73 2.53 2.31 2.18 2.04
1.42 1.55 1.58 1.56 1.50 1.42 1.31 1.43 1.44 1.27 1.22 1.19 1.32 1.21 1.17 1.43 1.54 1.37 1.45 1.45 1.45 1.43 1.44 1.40 1.31 1.23 1.16 1.09 1.21 1.33 1.16 1.21 1.69 2.27 2.30 1.94 2.26 2.76 2.90 2.71 2.49 2.43 2.34
1.82 1.63 1.58 1.84 1.94 1.98 2.03 1.85 1.78 1.75 1.73 1.66 1.76 1.66 1.69 1.90 1.81 1.82 1.89 1.77 1.66 1.66 1.66 1.77 1.60 1.26 1.18 1.32 1.43 1.39 1.36 1.43 1.70 2.13 2.22 2.03 2.32 2.85 3.07 2.94 2.69 2.62 2.66
2.17 2.00 1.79 1.84 1.92 2.04 2.20 2.17 2.06 2.00 1.99 1.94 1.99 1.84 2.04 2.24 2.32 2.31 2.37 2.15 2.08 2.08 2.18 2.18 2.05 1.74 1.53 1.50 1.47 1.51 1.59 1.63 1.80 2.07 2.12 1.89 2.09 2.62 3.15 3.20 2.95 2.83 2.80
2.53 2.41 2.23 2.01 1.96 2.11 2.37 2.51 2.40 2.40 2.36 2.46 2.55 2.31 2.34 2.39 2.44 2.74 2.74 2.90 2.56 2.53 2.63 2.60 2.41 2.28 2.06 1.86 1.78 1.72 1.78 1.80 1.85 2.02 1.98 1.93 2.08 2.43 2.96 3.25 3.26 3.21 3.16
3.14 2.81 2.55 2.39 2.24 2.23 2.36 2.64 2.70 2.56 2.67 2.79 2.89 2.73 2.73 2.78 2.88 3.21 3.30 3.31 3.09 3.13 3.31 3.35 3.14 2.90 2.63 2.53 2.29 2.23 2.19 2.20 2.32 2.31 2.24 2.13 2.00 2.08 2.59 3.09 3.45 3.62 3.56
3.29 3.18 2.94 2.81 2.78 2.62 2.59 2.85 2.94 2.85 2.83 2.90 3.10 3.15 3.07 3.15 3.44 3.56 3.85 3.79 3.57 3.59 3.64 3.61 3.81 3.76 3.23 2.89 2.76 2.72 2.65 2.56 2.72 2.79 2.83 2.61 2.28 2.18 2.34 2.70 3.06 3.28 3.38
3.45 3.23 3.14 2.82 2.80 3.04 3.09 3.36 3.29 3.34 3.49 3.43 3.50 3.70 3.67 3.69 3.78 3.83 3.86 3.92 3.84 3.83 4.13 4.25 4.20 4.10 3.85 3.45 3.27 3.05 2.90 2.95 2.78 2.79 2.87 2.73 2.63 2.28 2.13 2.17 2.40 2.63 2.98
2.94 3.01 3.13 3.07 3.04 3.12 3.34 3.72 3.82 3.98 4.18 4.37 4.43 4.63 4.55 4.35 4.25 4.31 4.29 4.41 4.26 4.32 4.30 4.18 4.56 4.48 4.35 3.92 3.44 3.24 2.97 2.95 2.84 2.55 2.56 2.56 2.51 2.36 2.24 2.05 2.17 2.39 2.71
2.88 3.02 3.18 3.37 3.58 3.56 3.62 3.88 4.31 4.49 4.61 4.99 5.07 5.10 5.17 5.17 5.01 5.01 4.96 4.96 4.83 4.69 4.57 4.54 4.61 4.42 4.29 4.00 3.49 3.24 2.92 2.57 2.49 2.48 2.24 2.34 2.29 2.08 2.16 2.17 2.23 2.11 2.38
3.03 3.20 3.17 3.40 3.80 4.07 4.46 4.46 4.68 5.12 5.41 5.51 5.62 5.63 5.56 5.49 5.49 5.34 5.17 5.26 5.10 4.86 4.62 4.55 4.53 4.44 4.12 4.05 4.07 3.62 2.96 2.53 2.32 2.16 2.17 2.22 2.04 2.03 2.29 2.28 2.20 2.10 2.00
3.06 3.30 3.41 3.55 4.05 4.55 5.11 5.64 6.03 6.41 6.42 6.50 6.41 6.30 6.00 5.83 5.75 5.58 5.59 5.42 5.19 5.05 4.78 4.56 4.52 4.44 4.11 4.12 4.14 4.07 3.31 2.77 2.18 1.72 1.83 1.88 1.85 1.94 2.03 1.96 1.92 1.97 1.98
3.04 3.28 3.43 3.78 4.45 5.31 5.89 6.36 6.90 7.22 6.91 6.63 6.34 6.25 6.15 6.08 5.99 5.87 5.85 5.58 5.35 5.08 4.72 4.43 4.30 4.22 4.09 4.11 4.01 4.11 3.55 2.87 2.35 1.91 1.68 1.60 1.67 1.81 1.80 1.86 1.81 1.81 1.88
3.02 3.19 3.43 4.07 4.78 5.45 6.07 6.70 7.27 7.54 7.56 7.31 6.75 6.27 5.84 5.56 5.37 5.28 5.25 5.10 4.91 4.63 4.37 4.06 3.96 3.91 4.04 3.90 3.86 3.65 3.38 3.01 2.77 2.38 2.00 1.75 1.71 1.72 1.72 1.72 1.73 1.76 1.82
2.69 3.19 3.56 4.17 4.87 5.52 6.29 7.06 7.50 7.73 7.70 7.32 6.53 5.75 5.19 4.90 4.63 4.42 4.36 4.26 4.11 3.92 3.75 3.66 3.68 3.62 3.56 3.42 3.32 3.32 3.33 3.27 2.93 2.60 2.26 1.99 1.90 1.78 1.73 1.74 1.86 1.89 1.87
2.59 3.01 3.52 3.86 4.47 5.17 5.80 6.43 6.66 6.81 6.73 6.30 5.89 5.40 5.00 4.51 4.06 3.72 3.57 3.46 3.29 3.16 3.16 3.18 3.24 3.22 3.23 3.21 3.12 2.99 2.96 2.94 2.76 2.67 2.40 2.15 2.12 1.95 1.84 1.77 1.73 1.81 1.86